Starlink 5106

operational
NORAD ID: 54823 Int'l Des: 2022-177 Owner: SPXS Country: US Constellation: starlink
LEOCIRCULAR

About Starlink 5106

Description loading...

Live Position

Loading 3D Globe...

Upcoming Passes

Altitude History

Altitude vs Time

uPlot chart will show altitude changes over time

Two-Line Element Set

1 54823U 22177D 25301.60480095 .00000827 00000-0 76255-4 0 9990
2 54823 43.0027 131.2753 0001211 267.9136 92.1568 15.02534365157087
Epoch: Oct 28, 2025 • Age: 24 hours

Current Status

Altitude 563.0 km
Velocity 7.59 km/s
Sub-Earth Point 42.87°N, 37.39°W
Launch Date Dec 28, 2022
Age 2.8 years
Type internet

Technical Details

Classification Payload
Mass 305.00 kg
Dry Mass 290.00 kg
Total Mass 305.00 kg
Length 0.20 m
Diameter 2.80 m
Span 9.00 m
Shape Box + pan
Manufacturer SPXS
Bus Type Starlink
Phase Status In Orbit
Owner/State SPXS/US

Large Constellations

Loading constellations...